Regional Weather Roundup
Issued by NWS

Home | Current Version | Previous Version | Graphics & Text | Print | Product List | Glossary On
Versions: 1 2 3 4 5 6 7 8 9 10 11 12 13 14 15 16 17 18 19 20 21 22 23 24 25 26 27
000
ASUS45 KSLC 240810
RWRUT

UTAH REGIONAL WEATHER ROUNDUP
NATIONAL WEATHER SERVICE SALT LAKE CITY UT
200 AM MDT SAT JUN 24 2017

UTZ001>011-023>025-240900-

NORTHERN UTAH

CITY           SKY/WX    TMP DP  RH WIND       PRES   REMARKS
BRIGHAM CITY   CLEAR     63  38  39 CALM      30.17S
HILL AFB       CLEAR     64  35  34 E14G22    30.18S
LOGAN          CLEAR     55  44  66 S3        30.20R
OGDEN          CLEAR     64  38  38 CALM      30.16S
SALT LAKE CITY CLEAR     68  39  34 W3        30.14S
TOOELE VALLEY  CLEAR     54  32  43 SE7       30.16S
WENDOVER         N/A     74  31  20 SW3       30.17
HEBER CITY     CLEAR     46  34  61 CALM      30.25S
WEST JORDAN    CLEAR     65  43  43 CALM      30.18R

$$

UTZ011>015-024>027-240900-

CENTRAL/NORTHEAST UTAH

CITY           SKY/WX    TMP DP  RH WIND       PRES   REMARKS
PROVO AIRPORT  CLEAR     58  40  51 CALM      30.18R
MOAB/CANYONLAN CLEAR     69  24  18 W8        30.06R
DELTA          CLEAR     63  21  20 E5        30.17S
PRICE          CLEAR     64  24  21 W8        30.20R
RICHFIELD      CLEAR     57  36  44 CALM      30.23R
ROOSEVELT      CLEAR     55  27  33 W8        30.18S
VERNAL         CLEAR     67  28  23 NE7       30.17R

$$

UTZ013>016-019>022-027-240900-

SOUTHERN UTAH

CITY           SKY/WX    TMP DP  RH WIND       PRES   REMARKS
BRYCE CANYON   NOT AVBL
CEDAR CITY     CLEAR     57  26  30 N5        30.19S
MILFORD        CLEAR     60  17  18 CALM      30.17S
ST GEORGE      SUNNY     91  24   9 NE15      29.91R
HANKSVILLE     CLEAR     72  19  14 SW3       30.11R
KANAB            N/A    N/A N/A N/A MISG        N/A
BLANDING       CLEAR     66  26  22 N10       30.22S

$$

REGIONAL REPORTS     COLORADO/ARIZONA

CITY           SKY/WX    TMP DP  RH WIND       PRES   REMARKS
CRAIG, CO      CLEAR     46  39  76 SE3       30.25S
GRAND JUNCTION CLEAR     70  22  16 CALM      30.09R
RIFLE, CO      CLEAR     58  32  37 E3        30.19R
MONTROSE, CO   CLEAR     60  30  32 S9        30.18R
CORTEZ, CO     CLEAR     53  28  38 E9        30.18R
COLORADO CITY    N/A     70  28  21 S5        30.11S
PAGE, AZ       CLEAR     84  19   9 NW6       30.03R
GRAND CANYON   CLEAR     54  29  38 CALM      30.25S
KINGMAN, AZ    CLEAR     88  41  19 S12       29.94S
FLAGSTAFF, AZ  CLEAR     58  30  34 CALM      30.27F

$$

REGIONAL REPORTS    NEVADA/IDAHO/WYOMING

CITY           SKY/WX    TMP DP  RH WIND       PRES   REMARKS
LAS VEGAS, NV  PTCLDY    97  20   6 S3        29.80R HX  90
ELY, NY        CLEAR     50  19  29 S6        30.28S
ELKO, NV       CLEAR     54  38  54 CALM      30.23S
POCATELLO, ID  CLEAR     52  40  63 CALM      30.21S
BURLEY, ID     CLEAR     53  40  61 SW5       30.18S
FORT BRIDGER,    N/A     55  27  34 W6        30.37R
EVANSTON, WY   CLOUDY    55  34  45 N6        30.34F
ROCK SPRINGS,  CLEAR     49  29  46 E10       30.34R
KEMMERER, WY     N/A     45  28  53 N10       30.36S

$$




USA.gov is the U.S. government's official web portal to all federal, state and local government web resources and services.